Flag Weather past 2 weeks in Friesoythe, Lower Saxony, Germany

Now
39 °F

Chilly.


Feels Like: 33 °F
Forecast: 36 / 41 °F
Wind: 9 mph from Southeast

Location: Meppen-Mil

Current Time: Nov 26, 2014 at 6:54:11 AM

Latest Report: Nov 26, 2014 at 5:20 AM


Visibility: N/A

Pressure: 30.12 "Hg

Humidity: 81%

Dew point: 34 °F

Location of FriesoytheLocation

Historic Weather in Friesoythe — Graph

°F

Friesoythe temperature yesterday

Maximum temperature yesterday: 46 °F (at 12:20 PM)
Minimum temperature yesterday: 30 °F (at 7:20 AM)
Average temperature yesterday: 39 °F

Past Weeks' High & Low Weather Summary

 TemperatureHumidityPressure
High57 °F (Nov 23, 1:20 PM)100% (Nov 11, 5:20 AM)30.36 "Hg (Nov 11, 5:20 AM)
Low28 °F (Nov 21, 3:20 AM)62% (Nov 24, 1:20 PM)29.47 "Hg (Nov 16, 1:20 PM)
Average45 °F88%29.94 "Hg
* Reported Nov 11 5:20 AM — Nov 26 5:20 AM, Friesoythe, Weather by CustomWeather, © 2014

Note: Actual official high and low records may vary slightly from our data, if they occured in-between our weather recording intervals... More about our weather records

Advertising

Friesoythe weather history for previous 24 hours

 ConditionsComfort  
Time TempWeatherWind HumidityBarometerVisibility
5:20 AM
Nov 26
39 °FChilly.9 mph81%30.12 "HgN/A
4:20 AM41 °FQuite cool.6 mph81%30.12 "HgN/A
3:20 AM41 °FQuite cool.7 mph81%30.15 "HgN/A
2:20 AM41 °FQuite cool.7 mph87%30.15 "Hg6 mi
1:20 AM41 °FQuite cool.7 mph87%30.18 "Hg4 mi
12:20 AM41 °FQuite cool.6 mph87%30.21 "Hg5 mi
11:20 PM
Nov 25
43 °FQuite cool.7 mph87%30.21 "Hg4 mi
10:20 PM43 °FQuite cool.7 mph87%30.24 "Hg3 mi
9:20 PM43 °FQuite cool.6 mph87%30.24 "Hg3 mi
8:20 PM43 °FQuite cool.6 mph87%30.24 "Hg4 mi
7:20 PM43 °FQuite cool.5 mph93%30.24 "Hg4 mi
6:20 PM43 °FQuite cool.3 mph93%30.27 "Hg4 mi
5:20 PM45 °FQuite cool.7 mph87%30.27 "Hg3 mi
4:20 PM46 °FCool.6 mph87%30.27 "Hg6 mi
3:20 PM46 °FCool.2 mph82%30.27 "HgN/A
2:20 PM46 °FPartly sunny.3 mph82%30.27 "HgN/A
1:20 PM46 °FPartly sunny.2 mph82%30.30 "HgN/A
12:20 PM46 °FPartly sunny.2 mph87%30.30 "Hg6 mi
11:20 AM41 °FFog.2 mph100%30.33 "Hg3 mi
10:20 AM37 °FFog.No wind93%30.33 "Hg2 mi
9:20 AM32 °FIce fog.2 mph100%30.33 "Hg2 mi
8:20 AM30 °FPassing clouds.2 mph100%30.33 "Hg1 mi
7:46 AM30 °FPassing clouds.1 mph100%30.33 "Hg1 mi
7:20 AM30 °FPassing clouds.1 mph100%30.33 "Hg1 mi
6:20 AM32 °FChilly.1 mph93%30.33 "Hg2 mi
Weather by CustomWeather, © 2014

See weather overviewHow to use our weather pages